Вернуться в каталог

LEMUR 2 JK0903EM1407

АктивенНаукаSSO
NORAD 58336·PAYLOAD·🇺🇸 United States

Запущен Nov 11, 2023 с Vandenberg Space Force Base

Loading…

Ближайшие Пролёты (ближайшие 24 часа)

TLE

СвежийSource: Space-Track

Эпоха: Sep 14, 2026, 04:57 UTC

1 58336U 23174CJ  26257.20688292  .00023428  00000-0  33712-3 0  9999
2 58336  97.3899 350.4601 0004844 143.5420 216.6166 15.56048478159551

Отслеживайте LEMUR 2 JK0903EM1407 в реальном времени с AllMySat

Download on the App Store